Location: Bidart
(43.4376°N, 1.5913°W)
Time: 12:00:48
(UTC+00:00)

USA 229 DEB - Pass Details

Date: 24 April 2026
Orbit: 844 x 1364 km, 63.4° (Epoch: 10 January)

Event Time Altitude Azimuth Distance (km) Brightness Sun altitude
Rises 21:37:47 0° 323° (NW) 3,892 8.1 -24.3°
Reaches altitude 10° 21:40:53 10° 336° (NNW) 3,020 7.0 -24.7°
Maximum altitude 21:46:55 27° 32° (NNE) 2,164 5.4 -25.3°
Enters shadow 21:52:01 15° 80° (E) 2,932 5.7 -25.9°
